OV1-4 R/B

Satellite information

Favourite Embed

Satellite Type and Status

ROCKET BODYIN ORBIT

Key statistics

Satellite OV1-4 R/B at a glance.

Uptime

21710

Days in orbit

Revolutions

≈ 13.9

Per day

Orbit

SSO

Sun Synchronous Orbit

Inclination

144.5

Latest

Satellite identification and parameters

Extended collection of information and parameters for OV1-4 R/B.

Object identification

Identified? True

Debris? False

Object name: OV1-4 R/B

International designator: 1966-025D

Object number (NORAD): 2124

Object ID (CCSDS): 2124

Country: UNITED STATES OF AMERICA (US)

Current information (Y/N): Y

RCS size: MEDIUM

Orbital parameters

Period: 103.763 minutes

Inclination: 144.5117 deg

SMA: 7314.549 km

Apoapsis: 995.711 km

Periapsis: 877.117 km

RAAN: 66.5152 deg

Eccentricy: 0.00810673

Argument of periapsis: 236.4939 deg

Mean anomaly: 122.7967 deg

Mean motion: 13.87782666 rev/day

Mean motion (dot): 0.00000393 rev/day2

B* drag term: 0.00010265149 1/REarth

Two-line elements (TLE)

Creation date: Sept. 6, 2025, 2:09 a.m.

Reference frame: TEME

Reference center: EARTH

Epoch: Sept. 5, 2025, 5:24 p.m. UTC

TLE line 0: 0 OV1-4 R/B

TLE line 1: 1 02124U 66025D 25248.72565403 .00000393 00000-0 10265-3 0 9993

TLE line 2: 2 02124 144.5117 66.5152 0081067 236.4939 122.7967 13.87782666 12064

Live tracking on map

Real-time ground track for satellite OV1-4 R/B.

In-orbit conjunctions

A list of the most updated potential collisions computed for object OV1-4 R/B.

Target Orbit TCA Probability of collision Miss distance Type
GGSE 3 LEO 2024-11-05 07:40:48 0.002332664 122.0 (m) PAYLOAD

Associated space launch

The OV1 (Orbiting Vehicle 1) were small research satellite to be launched piggy back on Atlas ICBM test flights. They consisted in general of the OV1 satellite and the OV1-PM propulsion module (or upper stage) to reach orbit.

OV1-4 R/B was lifted into orbit during the mission ‘Atlas D | OV1-4 & 5’, on board a Atlas D space rocket.

The launch took place on March 30, 1966, 9:20 a.m. from 576B3.

For more information about the launch, click the button.

Launch to space Atlas D | OV1-4 & 5
Atlas D | OV1-4 & 5

Agency: N/A

Status: Launch Successful

Launch date: March 30, 1966, 9:20 a.m. UTC

Rocket: Atlas D

Launch pad: 576B3

Location: Vandenberg SFB, CA, USA

...

Latest news about this satellite

There are no fresh news available about this satellite. Check back as we update our databases every day.


Newsletter sign-up

Weekly statistics, charts and insights to help you stay on top of the space industry.